Location: Unspecified
(44.0704°N, 88.6889°W)
Time: 09:00:08
(UTC+02:00)

Vanguard 2 Rocket - Pass Details

Date: 13 August 2020
Orbit: 554 x 3326 km, 32.9° (Epoch: 22 September)

Event Time Altitude Azimuth Distance (km) Brightness Sun altitude
Rises 07:41:23 0° 265° (W) 5,370 10.9 -31.3°
Reaches altitude 10° 07:46:25 10° 247° (WSW) 4,867 10.4 -31.3°
Enters shadow 07:49:53 15° 233° (SW) 4,764 10.2 -31.4°
